Location: Radomski Observatory
(40.2854°N, 79.5145°W)
Time: 16:38:54
(UTC-04:00)

Amateur Radio Satellites - All Passes

Search period start: 25 October 2014 16:08
Search period end: 26 October 2014 16:08
Location: Radomski Observatory, 40.2854°N, 79.5145°W

Satellite Date Start Highest point End Downlink Frequencies (MHz)
Time Altitude Azimuth
AO-27 25 Oct 16:13:18 16:15:56 14° 270° (W) 16:18:34 436.795 MHz FM
AO-7 25 Oct 16:17:01 16:25:11 68° 68° (ENE) 16:33:24 29.400 - 29.500 MHz
Uosat F 25 Oct 16:32:53 16:37:45 54° 72° (ENE) 16:42:40 435.120 FM
AO-40 25 Oct 16:38:59 23:27:20 42° 184° (S) 05:15:28 Beacon 2401.320
JAS-2 25 Oct 17:07:31 17:12:50 33° 64° (ENE) 17:18:45 435.800 - 435.900 CW/SSB, 435.910 FM
ISS 25 Oct 17:14:36 17:16:21 13° 10° (N) 17:18:05 145.800 FM
Hamsat 25 Oct 17:16:37 17:19:20 17° 66° (ENE) 17:22:02 145.90 MHz
Saudisat 1A 25 Oct 17:18:28 17:22:48 55° 242° (WSW) 17:27:06 436.775 MHz
AO-7 25 Oct 18:12:01 18:18:32 25° 266° (W) 18:25:06 29.400 - 29.500 MHz
Uosat F 25 Oct 18:13:40 18:16:51 17° 268° (W) 18:20:04 435.120 FM
OPAL 25 Oct 18:17:46 18:22:32 45° 101° (ESE) 18:27:15 ?
ISS 25 Oct 18:50:39 18:53:47 36° 29° (NNE) 18:56:54 145.800 FM
Hamsat 25 Oct 18:51:00 18:54:58 40° 262° (W) 18:58:55 145.90 MHz
JAS-2 25 Oct 18:52:15 18:57:44 39° 265° (W) 19:03:56 435.800 - 435.900 CW/SSB, 435.910 FM
KITSAT 1 25 Oct 18:55:24 18:59:03 13° 22° (NNE) 19:02:42 435.175 FM
SO-67 25 Oct 19:29:28 19:32:52 67° 76° (ENE) 19:36:18 435.3500 MHz FM
OPAL 25 Oct 19:57:25 20:01:05 21° 298° (WNW) 20:04:44 ?
HO-68 25 Oct 19:58:56 20:04:22 24° 58° (ENE) 20:09:48 435.675 MHz FM
STRAND 1 25 Oct 20:03:22 20:08:30 64° 102° (ESE) 20:13:35 ?
ISS 25 Oct 20:27:31 20:30:22 26° 226° (SW) 20:33:13 145.800 FM
KITSAT 1 25 Oct 20:49:32 20:57:05 41° 49° (NE) 21:04:35 435.175 FM
RS-15 25 Oct 21:04:56 21:13:03 24° 102° (ESE) 21:21:03 29.354 - 29.394 USB, Beacon 29.352 USB
Oscar 11 25 Oct 21:10:28 21:13:18 17° 66° (ENE) 21:16:09 145.825 FM, Beacon 2401.500 USB
SO-50 25 Oct 21:26:00 21:30:27 35° 50° (NE) 21:34:56 436.795 FM
STRAND 1 25 Oct 21:44:01 21:47:08 16° 298° (WNW) 21:50:14 ?
HO-68 25 Oct 21:44:18 21:51:25 69° 256° (WSW) 21:58:36 435.675 MHz FM
ZACube-1 25 Oct 22:01:20 22:05:11 27° 69° (ENE) 22:08:59 437.345 MHz
UKube-1 25 Oct 22:04:03 22:08:23 76° 75° (ENE) 22:12:45 145.840 MHz, 145.915 MHz
UOSAT-12 25 Oct 22:44:48 22:48:32 22° 45° (NE) 22:52:12 437.025 FM, 437.400 FM
KITSAT 1 25 Oct 22:44:56 22:52:36 49° 249° (WSW) 23:00:14 435.175 FM
FUNcube-1 25 Oct 22:44:58 22:49:32 79° 76° (ENE) 22:54:04 145.950 - 145.970 MHz USB
Oscar 11 25 Oct 22:45:03 22:49:09 42° 262° (W) 22:53:16 145.825 FM, Beacon 2401.500 USB
SO-50 25 Oct 23:06:43 23:10:56 30° 247° (WSW) 23:15:09 436.795 FM
RS-15 25 Oct 23:13:00 23:24:02 83° 302° (WNW) 23:35:02 29.354 - 29.394 USB, Beacon 29.352 USB
ZACube-1 25 Oct 23:37:31 23:41:28 28° 264° (W) 23:45:24 437.345 MHz
MaSat-1 26 Oct 00:13:13 00:17:22 78° 295° (WNW) 00:21:07 437.345 MHz
UOSAT-12 26 Oct 00:24:23 00:28:56 49° 243° (WSW) 00:33:24 437.025 FM, 437.400 FM
RS-15 26 Oct 01:29:12 01:38:15 29° 329° (NNW) 01:47:25 29.354 - 29.394 USB, Beacon 29.352 USB
Oscar 16 26 Oct 01:32:52 01:34:52 12° 90° (E) 01:36:51 437.025 USB, Beacon 2401.1428
Oscar 10/S400 26 Oct 01:41:54 02:41:27 20° 243° (WSW) 04:59:06 145.825 - 145.975 CW/USB, Beacon 145.810 USB
JAS-1B 26 Oct 02:12:00 02:18:13 34° 98° (E) 02:25:26 435.800 - 435.900 CW/SSB
Oscar 19 26 Oct 02:23:50 02:28:37 39° 98° (E) 02:33:23 437.125 CW, 437.150 USB
AO-27 26 Oct 02:44:59 02:49:17 25° 95° (E) 02:53:33 436.795 MHz FM
AO-Echo 26 Oct 02:55:01 03:00:05 43° 98° (E) 03:05:06 ?
Oscar 16 26 Oct 03:09:37 03:14:45 75° 286° (WNW) 03:19:50 437.025 USB, Beacon 2401.1428
Sapphire 26 Oct 03:13:05 03:17:09 22° 106° (ESE) 03:21:15 437.095 MHz 1200 baud AX-25 AFSK
Uribyol 2 26 Oct 03:31:23 03:36:36 74° 103° (ESE) 03:41:47 436.500 FM
PCSat 26 Oct 03:34:25 03:39:21 37° 111° (ESE) 03:44:19 145.825 MHz
ITAMSAT 1 26 Oct 03:37:43 03:42:59 80° 103° (ESE) 03:48:11 435.822 SSB
RS-15 26 Oct 03:48:38 03:55:52 19° 5° (N) 04:03:13 29.354 - 29.394 USB, Beacon 29.352 USB
OPAL 26 Oct 03:58:07 03:59:05 11° 56° (NE) 04:00:04 ?
JAS-1B 26 Oct 04:02:31 04:08:50 45° 291° (WNW) 04:16:19 435.800 - 435.900 CW/SSB
Oscar 19 26 Oct 04:03:39 04:07:44 25° 294° (WNW) 04:11:49 437.125 CW, 437.150 USB
Gurwin Techsat 1B 26 Oct 04:04:53 04:10:14 76° 103° (ESE) 04:15:32 435.225 FM
TMSAT-1 26 Oct 04:15:18 04:20:37 71° 102° (ESE) 04:25:53 436.925 FM
AO-7 26 Oct 04:20:22 04:26:28 22° 93° (E) 04:32:32 29.400 - 29.500 MHz
AO-27 26 Oct 04:24:03 04:28:52 38° 291° (WNW) 04:33:40 436.795 MHz FM
AO-Echo 26 Oct 04:34:19 04:38:33 25° 294° (WNW) 04:42:47 ?
Uosat F 26 Oct 04:42:15 04:45:33 17° 92° (E) 04:48:49 435.120 FM
Sapphire 26 Oct 04:54:57 05:00:11 50° 304° (WNW) 05:05:29 437.095 MHz 1200 baud AX-25 AFSK
Uribyol 2 26 Oct 05:12:41 05:15:25 15° 300° (WNW) 05:18:09 436.500 FM
PCSat 26 Oct 05:18:00 05:22:48 32° 308° (NW) 05:27:38 145.825 MHz
ITAMSAT 1 26 Oct 05:19:16 05:21:46 14° 300° (WNW) 05:24:15 435.822 SSB
OPAL 26 Oct 05:32:00 05:37:09 80° 73° (ENE) 05:42:15 ?
STRAND 1 26 Oct 05:44:00 05:45:28 11° 58° (ENE) 05:46:57 ?
Gurwin Techsat 1B 26 Oct 05:46:45 05:49:31 15° 300° (WNW) 05:52:18 435.225 FM
TMSAT-1 26 Oct 05:56:53 05:59:55 16° 299° (WNW) 06:02:56 436.925 FM
JAS-2 26 Oct 06:00:52 06:08:00 37° 95° (E) 06:15:01 435.800 - 435.900 CW/SSB, 435.910 FM
RS-15 26 Oct 06:02:44 06:12:49 37° 39° (NE) 06:23:12 29.354 - 29.394 USB, Beacon 29.352 USB
AO-7 26 Oct 06:11:39 06:19:58 77° 291° (WNW) 06:28:17 29.400 - 29.500 MHz
Uosat F 26 Oct 06:19:43 06:24:38 53° 288° (WNW) 06:29:31 435.120 FM
Hamsat 26 Oct 06:36:56 06:40:47 34° 97° (E) 06:44:38 145.90 MHz
OPAL 26 Oct 07:14:52 07:16:33 12° 268° (W) 07:18:14 ?
STRAND 1 26 Oct 07:18:43 07:23:50 87° 75° (ENE) 07:29:01 ?
PANSAT 26 Oct 07:22:45 07:23:07 10° 167° (SSE) 07:23:30 not established
Saudisat 1A 26 Oct 07:24:13 07:28:20 42° 116° (ESE) 07:32:30 436.775 MHz
JAS-2 26 Oct 07:45:39 07:53:02 49° 292° (WNW) 08:00:25 435.800 - 435.900 CW/SSB, 435.910 FM
AO-7 26 Oct 08:06:24 08:11:26 18° 310° (NW) 08:16:29 29.400 - 29.500 MHz
Hamsat 26 Oct 08:13:29 08:16:30 20° 293° (WNW) 08:19:31 145.90 MHz
RS-15 26 Oct 08:15:02 08:26:10 74° 243° (WSW) 08:37:49 29.354 - 29.394 USB, Beacon 29.352 USB
SO-67 26 Oct 08:25:56 08:29:24 88° 106° (ESE) 08:32:50 435.3500 MHz FM
PANSAT 26 Oct 09:00:28 09:02:31 14° 180° (S) 09:04:34 not established
STRAND 1 26 Oct 09:03:15 09:03:40 10° 272° (W) 09:04:06 ?
Saudisat 1A 26 Oct 09:04:36 09:08:04 23° 314° (NW) 09:11:34 436.775 MHz
HO-68 26 Oct 09:13:29 09:19:05 24° 93° (E) 09:24:37 435.675 MHz FM
UKube-1 26 Oct 09:54:28 09:56:37 13° 92° (E) 09:58:44 145.840 MHz, 145.915 MHz
MaSat-1 26 Oct 09:59:54 10:02:11 30° 250° (WSW) 10:04:20 437.345 MHz
RS-15 26 Oct 10:30:44 10:36:36 16° 262° (W) 10:42:36 29.354 - 29.394 USB, Beacon 29.352 USB
Oscar 11 26 Oct 10:33:05 10:37:02 34° 97° (E) 10:40:57 145.825 FM, Beacon 2401.500 USB
FUNcube-1 26 Oct 10:36:14 10:38:38 15° 92° (E) 10:41:00 145.950 - 145.970 MHz USB
PANSAT 26 Oct 10:41:31 10:41:55 10° 193° (SSW) 10:42:18 not established
HO-68 26 Oct 11:00:08 11:07:13 64° 291° (WNW) 11:14:17 435.675 MHz FM
KITSAT 1 26 Oct 11:18:32 11:24:58 27° 105° (ESE) 11:31:25 435.175 FM
ZACube-1 26 Oct 11:26:43 11:30:55 57° 100° (E) 11:35:00 437.345 MHz
UKube-1 26 Oct 11:28:50 11:33:06 53° 287° (WNW) 11:37:20 145.840 MHz, 145.915 MHz
ISS 26 Oct 11:33:47 11:35:33 14° 130° (SE) 11:37:20 145.800 FM
SO-50 26 Oct 11:44:09 11:45:05 11° 106° (ESE) 11:46:01 436.795 FM
Oscar 10/S400 26 Oct 11:57:24 12:16:04 23° 151° (SSE) 12:29:49 145.825 - 145.975 CW/USB, Beacon 145.810 USB
Sapphire 26 Oct 12:00:50 12:04:43 19° 45° (NE) 12:08:35 437.095 MHz 1200 baud AX-25 AFSK
Oscar 11 26 Oct 12:09:48 12:12:59 20° 293° (WNW) 12:16:08 145.825 FM, Beacon 2401.500 USB
FUNcube-1 26 Oct 12:11:14 12:15:15 43° 288° (WNW) 12:19:12 145.950 - 145.970 MHz USB
PCSat 26 Oct 12:22:42 12:27:25 29° 51° (NE) 12:32:07 145.825 MHz
Oscar 16 26 Oct 12:48:47 12:52:19 19° 63° (ENE) 12:55:51 437.025 USB, Beacon 2401.1428
HO-68 26 Oct 12:50:55 12:53:32 12° 310° (NW) 12:56:09 435.675 MHz FM
JAS-1B 26 Oct 12:59:42 13:04:03 22° 63° (ENE) 13:08:19 435.800 - 435.900 CW/SSB
ZACube-1 26 Oct 13:05:01 13:06:47 12° 297° (WNW) 13:08:32 437.345 MHz
ISS 26 Oct 13:08:34 13:11:52 64° 325° (NW) 13:15:11 145.800 FM
KITSAT 1 26 Oct 13:11:42 13:19:43 66° 304° (WNW) 13:27:47 435.175 FM
Uribyol 2 26 Oct 13:12:35 13:15:09 14° 60° (ENE) 13:17:43 436.500 FM
ITAMSAT 1 26 Oct 13:18:45 13:21:35 15° 60° (ENE) 13:24:25 435.822 SSB
SO-50 26 Oct 13:20:25 13:24:54 78° 303° (WNW) 13:29:33 436.795 FM
Oscar 19 26 Oct 13:40:07 13:45:08 54° 72° (ENE) 13:50:08 437.125 CW, 437.150 USB
Sapphire 26 Oct 13:43:16 13:48:41 71° 244° (WSW) 13:54:04 437.095 MHz 1200 baud AX-25 AFSK
Gurwin Techsat 1B 26 Oct 13:48:37 13:51:31 15° 61° (ENE) 13:54:25 435.225 FM
TMSAT-1 26 Oct 13:59:05 14:01:39 14° 60° (ENE) 14:04:14 436.925 FM
AO-27 26 Oct 14:02:30 14:07:16 37° 69° (ENE) 14:12:03 436.795 MHz FM
PCSat 26 Oct 14:05:52 14:10:57 41° 249° (WSW) 14:15:59 145.825 MHz
AO-Echo 26 Oct 14:07:27 14:12:10 50° 72° (ENE) 14:17:04 ?
Oscar 16 26 Oct 14:26:11 14:31:14 54° 260° (W) 14:36:17 437.025 USB, Beacon 2401.1428
UOSAT-12 26 Oct 14:34:37 14:39:07 56° 118° (ESE) 14:43:44 437.025 FM, 437.400 FM
ISS 26 Oct 14:46:53 14:49:05 16° 344° (NNW) 14:51:17 145.800 FM
Uribyol 2 26 Oct 14:48:43 14:53:56 79° 257° (WSW) 14:59:11 436.500 FM
JAS-1B 26 Oct 14:48:46 14:54:28 47° 260° (W) 14:59:56 435.800 - 435.900 CW/SSB
ITAMSAT 1 26 Oct 14:55:14 15:00:26 73° 257° (WSW) 15:05:41 435.822 SSB
SO-50 26 Oct 15:04:16 15:06:16 13° 323° (NW) 15:08:19 436.795 FM
KITSAT 1 26 Oct 15:11:21 15:16:48 19° 327° (NNW) 15:22:17 435.175 FM
AO-7 26 Oct 15:18:54 15:25:51 31° 58° (ENE) 15:32:49 29.400 - 29.500 MHz
Oscar 19 26 Oct 15:21:26 15:24:47 17° 268° (W) 15:28:08 437.125 CW, 437.150 USB
Gurwin Techsat 1B 26 Oct 15:25:32 15:30:50 74° 258° (WSW) 15:36:10 435.225 FM
TMSAT-1 26 Oct 15:35:34 15:40:52 80° 257° (WSW) 15:46:12 436.925 FM
AO-27 26 Oct 15:42:30 15:46:50 26° 265° (W) 15:51:11 436.795 MHz FM
AO-Echo 26 Oct 15:47:57 15:51:15 18° 269° (W) 15:54:38 ?
Saudisat 1A 26 Oct 15:51:18 15:55:16 31° 49° (NE) 15:59:12 436.775 MHz
Uosat F 26 Oct 15:54:56 15:58:53 24° 65° (ENE) 16:02:51 435.120 FM
